Simultaneous Nadir Overpasses (SNOs) Predictions

Prediction of SNOs between GOES-14 and AQUA Satellite Orbit:

Table of predicted SNOs for the next 14.0 days since TLE Epoch: 6/29/2024
Index Date Time (GOES-14) GOES-14 Lat,Lon AQUA Lat,Lon Distance(km) Time Diff (sec)
1 06/29/2024 09:26:32 -0.19,-108.54 -0.06,-109.12 66.39 80
2 07/01/2024 09:12:32 -0.19,-108.54 -0.95,-105.05 396.88 80
3 07/01/2024 21:30:07 0.21,-108.49 -0.09,-109.95 165.72 80
4 07/03/2024 21:16:05 0.21,-108.49 0.76,-105.87 297.93 80
5 07/04/2024 09:33:30 -0.24,-108.53 0.23,-110.74 250.56 80
6 07/06/2024 09:19:27 -0.24,-108.53 -0.62,-106.65 213.46 80
7 07/06/2024 21:37:01 0.26,-108.47 -0.43,-111.54 349.73 80
8 07/08/2024 21:22:57 0.26,-108.47 0.45,-107.45 115.63 80
9 07/09/2024 09:40:23 -0.28,-108.53 0.51,-112.32 431.57 80
10 07/11/2024 09:26:17 -0.28,-108.53 -0.31,-108.22 34.60 80
